Flag for Iran Weather past 2 weeks in Esfahãn, Iran

Now
36 °F

Haze.


Feels Like: 36 °F
Forecast: 37 / 55 °F
Wind: No wind

Location: Esfahan

Current Time: Dec 20, 2014 at 8:58:06 AM

Latest Report: Dec 20, 2014 at 8:30 AM


Visibility: 1 mi

Pressure: 30.21 "Hg

Humidity: 70%

Dew point: 27 °F

Location of EsfahãnLocation

Historic Weather in Esfahãn — Graph

°F

Esfahãn temperature yesterday

Maximum temperature yesterday: 54 °F (at 1:00 PM)
Minimum temperature yesterday: 21 °F (at 3:00 AM)
Average temperature yesterday: 37 °F

Past Weeks' High & Low Weather Summary

 TemperatureHumidityPressure
High61 °F (Dec 11, 2:30 PM)100% (Dec 5, 7:30 AM)30.45 "Hg (Dec 5, 7:30 AM)
Low19 °F (Dec 15, 7:30 AM)25% (Dec 15, 3:00 PM)30.07 "Hg (Dec 11, 5:00 AM)
Average39 °F59%30.26 "Hg
* Reported Dec 5 7:30 AM — Dec 20 8:00 AM, Esfahãn, Weather by CustomWeather, © 2014

Note: Actual official high and low records may vary slightly from our data, if they occured in-between our weather recording intervals... More about our weather records

Advertising

Esfahãn weather history for previous 24 hours

 ConditionsComfort  
Time TempWeatherWind HumidityBarometerVisibility
8:00 AM
Dec 20
32 °FHaze.5 mph75%30.21 "Hg1 mi
7:30 AM32 °FHaze.5 mph75%30.21 "Hg2 mi
7:00 AM32 °FHaze.5 mph80%30.21 "Hg1 mi
6:30 AM32 °FHaze.5 mph80%30.21 "Hg2 mi
6:00 AM34 °FHaze.No wind75%30.18 "Hg2 mi
5:30 AM34 °FHaze.5 mph70%30.18 "Hg2 mi
5:00 AM32 °FHaze.7 mph75%30.18 "Hg2 mi
4:30 AM34 °FHaze.5 mph75%30.18 "Hg2 mi
4:00 AM34 °FHaze.No wind75%30.18 "Hg1 mi
3:30 AM34 °FHaze.7 mph75%30.18 "Hg2 mi
2:30 AM34 °FHaze.5 mph75%30.18 "Hg2 mi
1:30 AM34 °FHaze.5 mph70%30.18 "Hg3 mi
1:00 AM34 °FClear.7 mph70%30.18 "Hg4 mi
12:30 AM32 °FClear.7 mph69%30.18 "Hg4 mi
12:00 AM32 °FClear.5 mph75%30.21 "Hg4 mi
11:30 PM
Dec 19
32 °FClear.7 mph69%30.21 "Hg4 mi
11:00 PM32 °FClear.No wind69%30.18 "Hg4 mi
10:30 PM30 °FClear.5 mph59%30.21 "Hg4 mi
10:00 PM37 °FClear.No wind60%30.21 "Hg4 mi
9:30 PM37 °FClear.No wind60%30.21 "Hg4 mi
9:00 PM39 °FClear.5 mph61%30.21 "Hg4 mi
8:30 PM39 °FClear.No wind61%30.21 "Hg4 mi
8:00 PM39 °FClear.No wind56%30.21 "Hg4 mi
7:30 PM41 °FOvercast.5 mph57%30.21 "Hg3 mi
7:00 PM41 °FMostly cloudy.5 mph53%30.21 "Hg2 mi
6:30 PM43 °FMostly cloudy.No wind57%30.21 "Hg2 mi
6:00 PM43 °FMostly cloudy.5 mph49%30.21 "Hg2 mi
5:30 PM45 °FMostly cloudy.7 mph46%30.18 "Hg2 mi
5:00 PM48 °FMostly cloudy.No wind43%30.18 "Hg2 mi
4:30 PM50 °FMostly cloudy.No wind40%30.18 "Hg2 mi
4:00 PM50 °FMostly cloudy.No wind40%30.18 "Hg3 mi
3:30 PM50 °FMostly cloudy.5 mph40%30.18 "Hg4 mi
3:00 PM50 °FMore clouds than sun.5 mph40%30.18 "Hg4 mi
2:30 PM52 °FMore clouds than sun.7 mph38%30.18 "Hg4 mi
2:00 PM52 °FPartly sunny.5 mph38%30.18 "Hg4 mi
1:30 PM52 °FPartly sunny.5 mph38%30.21 "Hg3 mi
1:00 PM54 °FPartly sunny.No wind38%30.21 "Hg3 mi
12:30 PM50 °FScattered clouds.No wind40%30.24 "Hg3 mi
12:00 PM48 °FPartly sunny.7 mph43%30.24 "Hg3 mi
11:30 AM46 °FPartly sunny.5 mph46%30.27 "Hg3 mi
11:00 AM45 °FPartly sunny.7 mph49%30.27 "Hg2 mi
10:30 AM45 °FScattered clouds.7 mph53%30.27 "Hg2 mi
10:00 AM41 °FScattered clouds.5 mph61%30.30 "Hg2 mi
9:30 AM37 °FScattered clouds.5 mph65%30.30 "Hg2 mi
9:00 AM36 °FPartly sunny.5 mph70%30.30 "Hg1 mi
8:30 AM30 °FPartly sunny.7 mph75%30.30 "Hg1 mi
8:00 AM23 °FPartly sunny.5 mph80%30.27 "Hg1 mi
Weather by CustomWeather, © 2014

See weather overviewHow to use our weather pages